Location: ????
(33.1659°N, 35.6604°E)
Time: 04:34:39
(UTC+00:00)

NOSS 3-4 (C) - Pass Details

Date: 20 September 2019
Orbit: 913 x 1299 km, 63.4° (Epoch: 21 September)

Event Time Altitude Azimuth Distance (km) Brightness Sun altitude
Rises 16:36:16 0° 336° (NNW) 3,889 7.1 -13.1°
Reaches altitude 10° 16:39:00 10° 343° (NNW) 2,987 6.4 -13.6°
Maximum altitude 16:45:49 44° 54° (NE) 1,592 4.3 -15.0°
Enters shadow 16:50:38 21° 115° (ESE) 2,452 5.0 -16.0°
